"Minute_start(file+0H)","port","#lines","avg(ALARM_STATUS)","avg(MPVPosition)","avg(OutletValve)","avg(CavityPressure)","avg(CavityTemp)","avg(WarmBoxTemp)","avg(EtalonTemp)","avg(DasTemp)","avg(CO2)","stdev(CO2)","count(CO2)","avg(CO2_dry)","avg(CH4)","stdev(CH4)","count(CH4)","avg(CH4_dry)","avg(h2o_reported)","stdev(h2o_reported)","count(h2o_reported)"
2018-03-02 00:00:00,-1,60,0.000,0.0,31297.34596,139.9985,45.000,45.000,45.077,28.967,413.8670,0.0492,20,414.2588,1.963744,0.000450,21,1.965260,7.84719e-02,1.81857e-03,21
2018-03-02 00:01:00,-1,60,0.000,0.0,31298.50671,140.0001,45.000,45.000,45.077,28.976,413.8104,0.0361,20,414.2004,1.963210,0.000409,21,1.964729,7.81918e-02,1.37116e-03,21
2018-03-02 00:02:00,-1,11,0.000,0.0,31300.63707,140.0050,45.000,45.000,45.077,28.979,413.8098,0.0087,4,414.1998,1.963253,0.000313,4,1.964833,7.78981e-02,1.42908e-03,5
2018-03-02 00:03:00,-1,60,0.000,0.0,31297.97446,140.0007,45.000,45.000,45.077,28.962,413.7927,0.0574,21,414.1805,1.963215,0.000503,21,1.964738,7.84226e-02,1.55478e-03,20
2018-03-02 00:04:00,-1,61,0.000,0.0,31297.79031,139.9989,45.000,45.000,45.077,28.956,413.8521,0.0296,21,414.2420,1.963646,0.000467,21,1.965160,7.82995e-02,1.20695e-03,21
2018-03-02 00:05:00,-1,60,0.000,0.0,31297.88211,140.0019,45.000,45.000,45.077,28.951,413.8036,0.0492,21,414.1996,1.963543,0.000697,20,1.965087,7.95580e-02,1.70387e-03,21
2018-03-02 00:06:00,-1,60,0.000,0.0,31298.29883,140.0003,45.000,45.000,45.077,28.938,413.8581,0.0363,21,414.2516,1.964052,0.000376,20,1.965616,7.89842e-02,1.56359e-03,21
2018-03-02 00:07:00,-1,60,0.000,0.0,31297.84096,139.9994,45.000,45.000,45.077,28.927,413.9287,0.0609,21,414.3210,1.964511,0.000406,20,1.966002,7.86701e-02,1.75284e-03,21
2018-03-02 00:08:00,-1,60,0.000,0.0,31297.67234,139.9984,45.000,45.000,45.077,28.909,413.9241,0.0521,21,414.3181,1.964401,0.000556,20,1.965959,7.91094e-02,2.28057e-03,21
2018-03-02 00:09:00,-1,61,0.000,0.0,31297.72532,139.9979,45.000,45.000,45.077,28.906,413.9217,0.0550,21,414.3153,1.964533,0.000676,21,1.965999,7.90217e-02,2.03634e-03,21
2018-03-02 00:10:00,-1,60,0.000,0.0,31295.56568,139.9993,45.000,45.000,45.077,28.895,413.8983,0.0582,20,414.2946,1.964393,0.000519,21,1.965929,7.86576e-02,1.76013e-03,21
2018-03-02 00:11:00,-1,60,0.000,0.0,31296.06899,139.9996,45.000,45.000,45.077,28.883,413.8958,0.0441,20,414.2909,1.964309,0.000306,21,1.965874,7.86980e-02,1.42083e-03,21
2018-03-02 00:12:00,-1,61,0.000,0.0,31295.43816,139.9997,45.000,45.000,45.077,28.892,413.9546,0.0472,21,414.3415,1.964895,0.000515,21,1.966359,7.91697e-02,1.88147e-03,21
2018-03-02 00:13:00,-1,60,0.000,0.0,31297.00757,140.0013,45.000,45.000,45.077,28.903,414.0027,0.0334,21,414.4032,1.965400,0.000367,21,1.966938,7.94124e-02,1.70459e-03,20
2018-03-02 00:14:00,-1,60,0.000,0.0,31297.48236,140.0002,45.000,45.000,45.077,28.875,413.9649,0.0336,21,414.3586,1.965196,0.000432,21,1.966692,7.86195e-02,1.48607e-03,20
2018-03-02 00:15:00,-1,61,0.000,0.0,31297.33754,140.0006,45.000,45.000,45.077,28.875,413.9926,0.0570,21,414.3853,1.965169,0.000471,21,1.966694,7.87862e-02,1.42337e-03,21
2018-03-02 00:16:00,-1,60,0.000,0.0,31295.73245,140.0008,45.000,45.000,45.077,28.864,413.9676,0.0650,21,414.3605,1.965089,0.000483,20,1.966619,7.89028e-02,1.62765e-03,21
2018-03-02 00:17:00,-1,60,0.000,0.0,31294.64064,139.9983,45.000,45.000,45.077,28.854,413.9014,0.0326,21,414.2945,1.964767,0.000403,20,1.966288,7.89216e-02,1.62855e-03,21
2018-03-02 00:18:00,-1,60,0.000,0.0,31295.77314,139.9988,45.000,45.000,45.077,28.858,413.9156,0.0360,21,414.3089,1.964693,0.000469,20,1.966225,7.89937e-02,1.77224e-03,21
2018-03-02 00:19:00,-1,61,0.000,0.0,31295.89450,139.9990,45.000,45.000,45.077,28.875,413.8630,0.0386,21,414.2556,1.963968,0.000502,21,1.965493,7.88677e-02,1.02438e-03,21
2018-03-02 00:20:00,-1,60,0.000,0.0,31296.45282,139.9998,45.000,45.000,45.077,28.897,413.8833,0.0368,20,414.2751,1.964167,0.000425,21,1.965697,7.93787e-02,1.41652e-03,21
2018-03-02 00:21:00,-1,60,0.000,0.0,31295.10222,139.9995,45.000,45.000,45.077,28.893,413.9076,0.0358,20,414.3022,1.964207,0.000316,21,1.965765,7.96238e-02,1.69990e-03,21
2018-03-02 00:22:00,-1,61,0.000,0.0,31294.08787,140.0013,45.000,45.000,45.077,28.904,413.8733,0.0334,21,414.2741,1.964322,0.000452,21,1.965860,8.02164e-02,1.65756e-03,21
2018-03-02 00:23:00,-1,60,0.000,0.0,31295.72717,140.0017,45.000,45.000,45.077,28.908,413.8406,0.0362,21,414.2350,1.963861,0.000400,21,1.965421,7.88994e-02,1.72818e-03,20
2018-03-02 00:24:00,-1,61,0.000,0.0,31295.68486,139.9969,45.000,45.000,45.077,28.907,413.8224,0.0361,21,414.2103,1.963946,0.000586,21,1.965453,7.79281e-02,1.38672e-03,21
2018-03-02 00:25:00,-1,60,0.000,0.0,31295.56542,140.0000,45.000,45.000,45.077,28.897,413.8014,0.0290,21,414.1932,1.963221,0.000346,20,1.964753,7.87513e-02,1.87571e-03,21
2018-03-02 00:26:00,-1,60,0.000,0.0,31293.84422,139.9987,45.000,45.000,45.077,28.901,413.8168,0.0356,21,414.2083,1.963865,0.000448,20,1.965372,7.86162e-02,1.84513e-03,21
2018-03-02 00:27:00,-1,60,0.000,0.0,31293.64336,139.9994,45.000,45.000,45.077,28.889,413.8458,0.0486,21,414.2361,1.963938,0.000402,20,1.965439,7.83864e-02,1.60529e-03,21
2018-03-02 00:28:00,-1,60,0.000,0.0,31294.88683,139.9985,45.000,45.000,45.077,28.901,413.8006,0.0341,21,414.1889,1.963549,0.000301,20,1.965066,7.79790e-02,1.95041e-03,21
2018-03-02 00:29:00,-1,61,0.000,0.0,31294.52596,139.9977,45.000,45.000,45.077,28.911,413.8433,0.0302,21,414.2306,1.963682,0.000343,21,1.965175,7.77412e-02,1.50706e-03,21
2018-03-02 00:30:00,-1,60,0.000,0.0,31291.45560,139.9985,45.000,45.000,45.077,28.903,413.8534,0.0280,20,414.2425,1.964004,0.000388,21,1.965482,7.80243e-02,1.64472e-03,21
2018-03-02 00:31:00,-1,60,0.000,0.0,31293.63044,139.9987,45.000,45.000,45.077,28.923,413.8200,0.0548,20,414.2144,1.963604,0.000586,21,1.965129,7.87566e-02,1.61525e-03,21
2018-03-02 00:32:00,-1,61,0.000,0.0,31293.65836,139.9996,45.000,45.000,45.077,28.927,413.8373,0.0369,21,414.2250,1.963920,0.000520,21,1.965412,7.83686e-02,2.07252e-03,21
2018-03-02 00:33:00,-1,61,0.000,0.0,31292.77373,140.0001,45.000,45.000,45.077,28.927,413.8609,0.0416,21,414.2490,1.964016,0.000556,21,1.965523,7.79967e-02,1.54470e-03,21
2018-03-02 00:34:00,-1,60,0.000,0.0,31291.20443,139.9981,45.000,45.000,45.077,28.926,413.8853,0.0478,21,414.2713,1.964366,0.000420,20,1.965892,7.75488e-02,1.29681e-03,21
2018-03-02 00:35:00,-1,60,0.000,0.0,31290.47242,139.9946,45.000,45.000,45.077,28.922,413.9110,0.0457,21,414.2966,1.964739,0.000537,20,1.966202,7.73981e-02,1.78768e-03,21
2018-03-02 00:36:00,-1,60,0.000,0.0,31291.22430,139.9997,45.000,45.000,45.077,28.926,413.9168,0.0294,21,414.3081,1.964920,0.000413,20,1.966459,7.85927e-02,1.73396e-03,21
2018-03-02 00:37:00,-1,60,0.000,0.0,31289.90497,139.9993,44.999,45.000,45.077,28.933,413.9104,0.0348,21,414.3006,1.965092,0.000356,20,1.966623,7.84289e-02,1.71419e-03,21
2018-03-02 00:38:00,-1,60,0.000,0.0,31291.54241,139.9999,45.000,45.000,45.077,28.938,413.9030,0.0431,21,414.2904,1.964652,0.000297,20,1.966173,7.78092e-02,1.56532e-03,21
2018-03-02 00:39:00,-1,61,0.000,0.0,31292.34799,140.0001,45.000,45.000,45.077,28.954,413.8491,0.0489,21,414.2344,1.963980,0.000591,21,1.965498,7.73212e-02,2.15538e-03,21
2018-03-02 00:40:00,-1,60,0.000,0.0,31290.41897,139.9963,45.000,45.000,45.077,28.948,413.8023,0.0305,20,414.1846,1.963886,0.000386,21,1.965339,7.64134e-02,1.80075e-03,21
2018-03-02 00:41:00,-1,60,0.000,0.0,31288.67476,139.9995,45.000,45.000,45.077,28.963,413.8361,0.0442,20,414.2170,1.964122,0.000392,21,1.965619,7.67525e-02,1.44798e-03,21
2018-03-02 00:42:00,-1,61,0.000,0.0,31289.44457,140.0007,45.000,45.000,45.077,28.927,413.8052,0.0300,21,414.1884,1.963765,0.000445,21,1.965238,7.70123e-02,1.75993e-03,21
2018-03-02 00:43:00,-1,61,0.000,0.0,31290.59441,139.9999,45.000,45.000,45.077,28.911,413.7732,0.0414,21,414.1560,1.963493,0.000494,21,1.964979,7.69552e-02,1.43267e-03,21
2018-03-02 00:44:00,-1,60,0.000,0.0,31288.90341,139.9981,45.000,45.000,45.077,28.895,413.7824,0.0397,21,414.1636,1.963696,0.000366,20,1.965158,7.65488e-02,1.57380e-03,21
2018-03-02 00:45:00,-1,60,0.000,0.0,31286.58716,139.9968,45.000,45.000,45.077,28.894,413.7603,0.0331,21,414.1436,1.963273,0.000429,20,1.964779,7.69960e-02,1.14447e-03,21
2018-03-02 00:46:00,-1,60,0.000,0.0,31287.63391,139.9984,45.000,45.000,45.077,28.906,413.7532,0.0303,21,414.1334,1.963354,0.000446,20,1.964819,7.62943e-02,1.51517e-03,21
2018-03-02 00:47:00,-1,60,0.000,0.0,31288.99716,139.9999,45.000,45.000,45.077,28.913,413.7720,0.0307,21,414.1535,1.963359,0.000471,20,1.964834,7.65828e-02,1.97343e-03,21
2018-03-02 00:48:00,-1,61,0.000,0.0,31288.52906,139.9996,45.000,45.000,45.077,28.938,413.7819,0.0644,21,414.1528,1.963677,0.000489,21,1.965104,7.44407e-02,1.07390e-03,21
2018-03-02 00:49:00,-1,60,0.000,0.0,31288.31433,139.9977,45.000,45.000,45.077,28.922,413.8153,0.0436,20,414.1898,1.963571,0.000503,21,1.965037,7.55684e-02,1.43351e-03,21
2018-03-02 00:50:00,-1,60,0.000,0.0,31289.92445,140.0006,45.000,45.000,45.077,28.919,413.8007,0.0408,20,414.1780,1.963507,0.000486,21,1.964959,7.55914e-02,1.23828e-03,21
2018-03-02 00:51:00,-1,61,0.000,0.0,31288.95052,139.9999,45.000,45.000,45.077,28.900,413.7652,0.0283,21,414.1363,1.963510,0.000330,21,1.964908,7.45378e-02,1.24997e-03,21
2018-03-02 00:52:00,-1,61,0.000,0.0,31286.88663,140.0012,45.000,45.000,45.077,28.903,413.8957,0.0644,21,414.2694,1.964636,0.000450,21,1.966088,7.50386e-02,1.53171e-03,21
2018-03-02 00:53:00,-1,60,0.000,0.0,31289.10817,139.9974,45.000,45.000,45.077,28.881,413.8445,0.0314,21,414.2237,1.964124,0.000509,20,1.965605,7.62489e-02,1.54861e-03,21
2018-03-02 00:54:00,-1,60,0.000,0.0,31288.75948,140.0004,45.000,45.000,45.077,28.900,413.8096,0.0423,21,414.1879,1.963749,0.000418,20,1.965242,7.59941e-02,1.86322e-03,21
2018-03-02 00:55:00,-1,60,0.000,0.0,31287.56718,139.9993,45.000,45.000,45.077,28.865,413.9233,0.0864,21,414.3012,1.965004,0.000766,20,1.966455,7.59812e-02,2.07096e-03,21
2018-03-02 00:56:00,-1,60,0.000,0.0,31287.42406,139.9990,45.000,45.000,45.077,28.875,413.8804,0.0522,21,414.2562,1.964277,0.000552,20,1.965835,7.55104e-02,1.35906e-03,21
2018-03-02 00:57:00,-1,61,0.000,0.0,31288.09913,139.9966,45.000,45.000,45.077,28.875,413.9204,0.1372,21,414.2957,1.964876,0.001341,21,1.966231,7.53687e-02,1.80136e-03,21
2018-03-02 00:58:00,-1,60,0.000,0.0,31289.83086,139.9985,45.000,45.000,45.077,28.875,414.1065,0.0712,20,414.4826,1.966815,0.000739,21,1.968218,7.53742e-02,2.12104e-03,21
2018-03-02 00:59:00,-1,60,0.000,0.0,31288.23911,139.9981,45.000,45.000,45.077,28.900,414.0876,0.0965,20,414.4730,1.966443,0.000999,21,1.968030,7.64991e-02,1.52339e-03,21
2018-03-02 01:00:00,-1,61,0.000,0.0,31286.69691,140.0000,45.000,45.000,45.077,28.902,413.9238,0.0495,21,414.2961,1.965071,0.000524,21,1.966531,7.56233e-02,1.55313e-03,21
2018-03-02 01:01:00,-1,60,0.000,0.0,31287.07854,139.9997,45.000,45.000,45.077,28.908,413.9994,0.0340,21,414.3775,1.965280,0.000361,21,1.966737,7.51557e-02,1.89360e-03,20
2018-03-02 01:02:00,-1,15,0.000,0.0,31286.19516,139.9994,45.000,45.000,45.077,28.901,413.9255,0.0462,6,414.3102,1.964909,0.000498,6,1.966442,7.55110e-02,1.98654e-03,5
2018-03-02 01:03:00,-1,60,0.000,0.0,31285.86197,140.0007,45.000,45.000,45.077,28.918,413.9162,0.0312,21,414.2872,1.965010,0.000449,20,1.966478,7.43481e-02,1.69086e-03,21
2018-03-02 01:04:00,-1,60,0.000,0.0,31287.12500,139.9994,45.000,45.000,45.076,28.895,413.9394,0.0446,21,414.3119,1.965308,0.000513,20,1.966716,7.47499e-02,1.95267e-03,21
2018-03-02 01:05:00,-1,60,0.000,0.0,31286.08968,139.9983,45.000,45.000,45.077,28.902,413.8644,0.0325,21,414.2377,1.964626,0.000482,20,1.966066,7.50355e-02,1.46139e-03,21
2018-03-02 01:06:00,-1,61,0.000,0.0,31286.64898,139.9990,45.000,45.000,45.077,28.889,413.9037,0.0407,21,414.2724,1.964652,0.000467,21,1.966032,7.40142e-02,1.87067e-03,21
2018-03-02 01:07:00,-1,60,0.000,0.0,31288.16073,140.0015,45.000,45.000,45.077,28.875,413.9471,0.0361,20,414.3199,1.965392,0.000362,21,1.966793,7.54140e-02,1.60645e-03,21
2018-03-02 01:08:00,-1,61,0.000,0.0,31288.04827,139.9984,45.000,45.000,45.077,28.875,413.9402,0.0367,21,414.3154,1.965332,0.000405,21,1.966762,7.56245e-02,1.96088e-03,21
2018-03-02 01:09:00,-1,60,0.000,0.0,31287.93095,140.0000,45.000,45.000,45.077,28.884,414.0970,0.0983,21,414.4721,1.966850,0.001097,21,1.968266,7.52369e-02,1.89820e-03,20
2018-03-02 01:10:00,-1,61,0.000,0.0,31288.55817,140.0009,45.000,45.000,45.077,28.867,414.1074,0.0938,21,414.4828,1.966903,0.000944,21,1.968362,7.53262e-02,1.84985e-03,21
2018-03-02 01:11:00,-1,60,0.000,0.0,31292.05501,140.0009,45.000,45.000,45.077,28.875,414.3304,0.0370,21,414.7104,1.969256,0.000478,20,1.970744,7.63309e-02,1.62950e-03,21
2018-03-02 01:12:00,-1,60,0.000,0.0,31292.69674,140.0010,45.000,45.000,45.077,28.857,414.2033,0.1338,21,414.5827,1.967692,0.001581,20,1.969213,7.61389e-02,1.74142e-03,21
2018-03-02 01:13:00,-1,60,0.000,0.0,31290.03348,140.0005,45.000,45.000,45.077,28.848,414.0398,0.0794,21,414.4136,1.965991,0.000727,20,1.967406,7.50684e-02,2.04970e-03,21
2018-03-02 01:14:00,-1,60,0.000,0.0,31289.89119,139.9993,45.000,45.000,45.077,28.825,414.2073,0.1568,21,414.5815,1.967692,0.001633,20,1.969076,7.51356e-02,1.38551e-03,21
2018-03-02 01:15:00,-1,61,0.000,0.0,31289.09813,139.9977,45.000,45.000,45.077,28.830,414.3545,0.0482,21,414.7318,1.969214,0.000479,21,1.970714,7.57383e-02,2.17859e-03,21
2018-03-02 01:16:00,-1,60,0.000,0.0,31290.19250,140.0009,45.000,45.001,45.077,28.825,414.3542,0.0485,20,414.7313,1.969242,0.000446,21,1.970657,7.64777e-02,1.47217e-03,21
2018-03-02 01:17:00,-1,60,0.000,0.0,31290.64279,139.9995,45.000,45.000,45.077,28.842,414.4449,0.0406,20,414.8181,1.970111,0.000391,21,1.971530,7.56598e-02,1.26432e-03,21
2018-03-02 01:18:00,-1,61,0.000,0.0,31289.91733,139.9996,45.000,45.000,45.077,28.854,414.4115,0.0566,21,414.7932,1.969926,0.000597,21,1.971374,7.64815e-02,1.97440e-03,21
2018-03-02 01:19:00,-1,61,0.000,0.0,31290.79171,140.0013,45.000,45.000,45.077,28.862,414.3892,0.0401,21,414.7726,1.969582,0.000578,21,1.971073,7.69096e-02,1.24666e-03,21
2018-03-02 01:20:00,-1,60,0.000,0.0,31287.74287,139.9999,45.000,45.000,45.077,28.875,414.3259,0.0354,21,414.7039,1.968997,0.000418,20,1.970550,7.58358e-02,1.73311e-03,21
2018-03-02 01:21:00,-1,60,0.000,0.0,31291.03156,139.9992,45.000,45.000,45.077,28.857,414.3113,0.0347,21,414.6907,1.968788,0.000340,20,1.970277,7.60218e-02,1.76864e-03,21
2018-03-02 01:22:00,-1,60,0.000,0.0,31287.80201,140.0004,45.000,45.000,45.077,28.853,414.3480,0.0373,21,414.7223,1.969546,0.000382,20,1.970984,7.50219e-02,1.64451e-03,21
2018-03-02 01:23:00,-1,60,0.000,0.0,31286.60149,139.9993,45.000,45.000,45.077,28.854,414.3398,0.0494,21,414.7143,1.969120,0.000483,20,1.970592,7.51718e-02,1.71981e-03,21
2018-03-02 01:24:00,-1,60,0.000,0.0,31288.82814,140.0015,45.000,45.000,45.077,28.854,414.1986,0.0533,21,414.5698,1.967990,0.000313,20,1.969426,7.44906e-02,1.87107e-03,21
2018-03-02 01:25:00,-1,60,0.000,0.0,31286.59045,139.9994,45.000,45.000,45.077,28.865,414.2825,0.0668,21,414.6522,1.968616,0.000564,20,1.970047,7.41092e-02,1.64265e-03,21
2018-03-02 01:26:00,-1,61,0.000,0.0,31287.08887,139.9997,45.000,45.000,45.077,28.875,414.3087,0.0531,21,414.6778,1.968806,0.000719,21,1.970300,7.40209e-02,1.63629e-03,21
2018-03-02 01:27:00,-1,60,0.000,0.0,31290.04959,139.9999,45.000,45.000,45.077,28.856,414.2331,0.0393,20,414.6052,1.968278,0.000435,21,1.969748,7.44872e-02,2.01906e-03,21
2018-03-02 01:28:00,-1,60,0.000,0.0,31291.88133,139.9999,45.000,45.000,45.077,28.875,414.2260,0.0367,20,414.5931,1.968218,0.000467,21,1.969577,7.39226e-02,1.63621e-03,21
2018-03-02 01:29:00,-1,60,0.000,0.0,31290.55552,139.9994,45.000,45.000,45.077,28.865,414.3716,0.0752,20,414.7392,1.969457,0.000689,21,1.970924,7.46348e-02,1.68812e-03,21
2018-03-02 01:30:00,-1,61,0.000,0.0,31291.56204,139.9982,45.000,45.000,45.077,28.875,414.2286,0.0364,21,414.6066,1.967961,0.000428,21,1.969454,7.45871e-02,1.73901e-03,21
2018-03-02 01:31:00,-1,61,0.000,0.0,31290.54383,140.0003,45.000,45.000,45.077,28.875,414.2378,0.0418,21,414.6041,1.968377,0.000419,21,1.969801,7.33240e-02,1.59044e-03,21
2018-03-02 01:32:00,-1,60,0.000,0.0,31290.87064,139.9998,45.000,45.000,45.077,28.850,414.2758,0.0419,21,414.6440,1.968751,0.000395,20,1.970173,7.38012e-02,2.53540e-03,21
2018-03-02 01:33:00,-1,60,0.000,0.0,31288.65860,139.9981,45.000,45.000,45.077,28.875,414.3182,0.0359,21,414.6858,1.969016,0.000405,20,1.970437,7.37106e-02,1.80736e-03,21
2018-03-02 01:34:00,-1,60,0.000,0.0,31291.54653,140.0001,45.000,45.000,45.077,28.875,414.3938,0.0333,21,414.7613,1.969660,0.000554,20,1.971071,7.37440e-02,1.90745e-03,21
2018-03-02 01:35:00,-1,61,0.000,0.0,31290.61885,140.0007,45.000,45.000,45.077,28.875,414.4571,0.0430,21,414.8224,1.970522,0.000421,21,1.971857,7.32793e-02,1.45645e-03,21
2018-03-02 01:36:00,-1,60,0.000,0.0,31290.06393,140.0014,45.000,45.000,45.077,28.875,414.4575,0.0297,20,414.8225,1.970623,0.000458,21,1.972050,7.37420e-02,1.91653e-03,21
2018-03-02 01:37:00,-1,60,0.000,0.0,31288.12647,140.0004,45.000,45.000,45.077,28.875,414.4527,0.0309,20,414.8219,1.970270,0.000394,21,1.971755,7.40727e-02,1.43896e-03,21
2018-03-02 01:38:00,-1,60,0.000,0.0,31290.50289,140.0015,45.000,45.000,45.077,28.898,414.3917,0.0265,20,414.7626,1.969845,0.000342,21,1.971283,7.40653e-02,1.77178e-03,21
2018-03-02 01:39:00,-1,61,0.000,0.0,31290.78449,139.9993,45.000,45.000,45.077,28.900,414.3461,0.0356,21,414.7191,1.969201,0.000473,21,1.970711,7.42751e-02,1.92981e-03,21
2018-03-02 01:40:00,-1,60,0.000,0.0,31289.57160,139.9993,45.000,45.000,45.077,28.900,414.3318,0.0379,21,414.7005,1.969177,0.000563,21,1.970627,7.29849e-02,1.51092e-03,20
2018-03-02 01:41:00,-1,61,0.000,0.0,31288.81145,139.9980,45.000,45.000,45.077,28.900,414.3169,0.0448,21,414.6879,1.969106,0.000491,21,1.970548,7.44783e-02,1.33292e-03,21
2018-03-02 01:42:00,-1,60,0.000,0.0,31289.51406,140.0012,45.000,45.000,45.077,28.895,414.2153,0.0263,21,414.5850,1.968090,0.000293,20,1.969556,7.41605e-02,1.85524e-03,21
2018-03-02 01:43:00,-1,60,0.000,0.0,31289.53143,139.9999,45.000,45.000,45.077,28.901,414.1807,0.0322,21,414.5475,1.967815,0.000378,20,1.969221,7.35262e-02,1.93475e-03,21
2018-03-02 01:44:00,-1,60,0.000,0.0,31290.18595,140.0002,45.000,45.000,45.077,28.895,414.2254,0.0293,21,414.5875,1.967985,0.000364,20,1.969420,7.26286e-02,1.54923e-03,21
2018-03-02 01:45:00,-1,60,0.000,0.0,31288.17809,139.9979,45.000,45.000,45.077,28.908,414.2626,0.0456,21,414.6286,1.968583,0.000352,20,1.969978,7.34472e-02,1.44220e-03,21
2018-03-02 01:46:00,-1,61,0.000,0.0,31288.72328,139.9988,45.000,45.000,45.077,28.915,414.3597,0.0297,21,414.7251,1.969673,0.000511,21,1.971033,7.32641e-02,1.83564e-03,21
2018-03-02 01:47:00,-1,60,0.000,0.0,31291.04942,140.0007,45.000,45.000,45.077,28.909,414.2957,0.0448,20,414.6674,1.969072,0.000547,21,1.970504,7.39069e-02,1.50622e-03,21
2018-03-02 01:48:00,-1,60,0.000,0.0,31291.92543,140.0008,45.000,45.000,45.077,28.908,414.3533,0.0517,20,414.7205,1.969768,0.000536,21,1.971173,7.41916e-02,2.09474e-03,21
2018-03-02 01:49:00,-1,61,0.000,0.0,31292.29201,139.9996,45.000,45.000,45.077,28.909,414.4785,0.0329,21,414.8448,1.970643,0.000487,21,1.972038,7.46428e-02,1.94909e-03,21
2018-03-02 01:50:00,-1,60,0.000,0.0,31293.97579,139.9998,45.000,45.000,45.077,28.909,414.3811,0.0503,21,414.7567,1.969565,0.000694,21,1.971057,7.50471e-02,2.09356e-03,20
2018-03-02 01:51:00,-1,61,0.000,0.0,31294.55473,139.9984,45.000,45.000,45.077,28.896,414.3924,0.0445,21,414.7636,1.969719,0.000524,21,1.971163,7.44355e-02,2.08093e-03,21
2018-03-02 01:52:00,-1,60,0.000,0.0,31293.60246,139.9990,45.000,45.000,45.077,28.908,414.4310,0.0730,21,414.8005,1.970105,0.000827,20,1.971531,7.42381e-02,1.54793e-03,21
2018-03-02 01:53:00,-1,60,0.000,0.0,31294.47809,139.9994,45.000,45.000,45.077,28.922,414.5212,0.0735,21,414.8920,1.970844,0.000620,20,1.972318,7.44478e-02,2.15395e-03,21
2018-03-02 01:54:00,-1,60,0.000,0.0,31294.06578,139.9990,45.000,45.000,45.077,28.932,414.5002,0.0519,21,414.8740,1.971003,0.000515,20,1.972489,7.50862e-02,1.86367e-03,21
2018-03-02 01:55:00,-1,60,0.000,0.0,31292.84071,139.9980,45.000,45.000,45.077,28.917,414.4570,0.0644,21,414.8336,1.970357,0.000595,20,1.971863,7.54676e-02,1.63282e-03,21
2018-03-02 01:56:00,-1,61,0.000,0.0,31292.36231,139.9956,45.000,45.000,45.077,28.926,414.4024,0.0544,21,414.7714,1.969894,0.000563,21,1.971392,7.39578e-02,1.31707e-03,21
2018-03-02 01:57:00,-1,60,0.000,0.0,31292.58024,139.9984,45.000,45.000,45.077,28.956,414.4980,0.0685,20,414.8611,1.970865,0.000608,21,1.972211,7.43093e-02,1.55584e-03,21
2018-03-02 01:58:00,-1,60,0.000,0.0,31293.75842,140.0019,45.000,45.000,45.077,28.938,414.5376,0.0479,20,414.9047,1.971438,0.000362,21,1.972842,7.39937e-02,1.33126e-03,21
2018-03-02 01:59:00,-1,61,0.000,0.0,31293.58608,139.9992,45.000,45.000,45.077,28.943,414.5781,0.0449,21,414.9448,1.971678,0.000688,21,1.973082,7.43419e-02,1.88200e-03,21
2018-03-02 02:00:00,-1,60,0.000,0.0,31290.33428,139.9964,45.000,45.000,45.077,28.949,414.6083,0.0445,21,414.9832,1.971968,0.000572,21,1.973477,7.49555e-02,1.30345e-03,20
2018-03-02 02:01:00,-1,60,0.000,0.0,31294.41392,140.0002,45.000,45.000,45.077,28.963,414.6458,0.0527,21,415.0284,1.972284,0.000580,21,1.973787,7.60780e-02,1.48558e-03,20
2018-03-02 02:02:00,-1,19,0.000,0.0,31294.13780,139.9959,45.000,45.000,45.077,28.966,414.5526,0.0450,7,414.9387,1.971499,0.000369,7,1.973002,7.71466e-02,1.75634e-03,7
2018-03-02 02:03:00,-1,60,0.000,0.0,31293.52220,140.0001,45.000,45.000,45.077,28.987,414.5406,0.0391,21,414.9138,1.971585,0.000467,20,1.973021,7.47632e-02,1.73491e-03,21
2018-03-02 02:04:00,-1,60,0.000,0.0,31293.57713,139.9996,45.000,45.000,45.077,28.981,414.7128,0.0842,21,415.0857,1.973109,0.000771,20,1.974491,7.47121e-02,1.48876e-03,21
2018-03-02 02:05:00,-1,60,0.000,0.0,31293.83053,139.9989,45.000,45.000,45.077,28.974,414.7418,0.0648,21,415.1223,1.973296,0.000626,20,1.974783,7.63183e-02,2.12202e-03,21
2018-03-02 02:06:00,-1,60,0.000,0.0,31292.31584,140.0003,45.000,45.000,45.077,28.983,414.6656,0.0732,21,415.0462,1.972701,0.000707,20,1.974174,7.62444e-02,1.58646e-03,21
2018-03-02 02:07:00,-1,61,0.000,0.0,31291.86820,139.9989,45.000,45.000,45.077,28.992,414.6000,0.0840,21,414.9790,1.971836,0.000810,21,1.973425,7.60301e-02,1.58738e-03,21
2018-03-02 02:08:00,-1,60,0.000,0.0,31292.94133,139.9974,45.000,45.000,45.077,28.989,414.4468,0.0362,20,414.8173,1.970539,0.000462,21,1.971939,7.39477e-02,1.84719e-03,21
2018-03-02 02:09:00,-1,61,0.000,0.0,31294.75033,140.0010,45.000,45.000,45.077,28.979,414.6548,0.0747,21,415.0076,1.972595,0.000760,21,1.973867,7.40784e-02,2.60461e-03,21
2018-03-02 02:10:00,-1,61,0.000,0.0,31295.53364,140.0009,45.000,45.000,45.077,28.972,414.7300,0.0506,21,415.1007,1.973442,0.000477,21,1.974885,7.43506e-02,1.70305e-03,21
2018-03-02 02:11:00,-1,60,0.000,0.0,31296.12710,139.9998,45.000,45.000,45.077,28.960,414.6991,0.0389,21,415.0726,1.972969,0.000607,20,1.974451,7.49694e-02,1.56808e-03,21
2018-03-02 02:12:00,-1,60,0.000,0.0,31295.34075,139.9991,45.000,45.000,45.077,28.970,414.7710,0.1130,21,415.1443,1.973656,0.001236,20,1.975064,7.48898e-02,1.67910e-03,21
2018-03-02 02:13:00,-1,60,0.000,0.0,31295.06842,140.0005,45.000,45.000,45.077,28.972,414.8726,0.0767,21,415.2504,1.974916,0.000788,20,1.976395,7.56615e-02,2.15267e-03,21
2018-03-02 02:14:00,-1,60,0.000,0.0,31292.38158,140.0010,45.000,45.000,45.077,28.960,414.7163,0.0430,21,415.0953,1.973307,0.000709,20,1.974778,7.58987e-02,1.80735e-03,21
2018-03-02 02:15:00,-1,60,0.000,0.0,31293.58366,139.9999,45.000,45.000,45.077,28.960,414.8603,0.0703,21,415.2341,1.974415,0.000749,20,1.975838,7.49224e-02,1.79583e-03,21
2018-03-02 02:16:00,-1,60,0.000,0.0,31295.04596,140.0006,45.000,45.000,45.077,28.958,414.8812,0.0351,21,415.2571,1.974903,0.000392,20,1.976351,7.53022e-02,1.51327e-03,21
2018-03-02 02:17:00,-1,60,0.000,0.0,31297.39928,139.9977,45.000,45.000,45.077,28.938,414.8984,0.0409,21,415.2730,1.975126,0.000364,20,1.976593,7.50549e-02,1.93816e-03,21